DAL2378 EGKK-EDDK

Flight info

Callsign DAL2378
Flight time 0h 49m
Altitude 33000
Route ODVIK Y311 DVR UL9 KONAN UL607 SPI T857 DENOV T861 ERUKI T856 DEPOK
Aircraft B763/H-SDE3FGHIM3RWXY/LB1

Departure

Time 2026-04-22 07:49
Airport London Gatwick Airport (EGKK)

Arrival

Time 2026-04-22 08:39
Airport Cologne Bonn Airport (EDDK)
Time Latitude Longitude Altitude Speed Heading
2026-04-22 07:35 51.15304 -0.18585 204 ft 0 kts 78°
2026-04-22 07:41 51.15297 -0.18636 207 ft 0 kts 78°
2026-04-22 07:41 51.15316 -0.18740 205 ft 0 kts 151°
2026-04-22 07:42 51.15316 -0.18741 204 ft 0 kts 167°
2026-04-22 07:45 51.15268 -0.18721 210 ft 14 kts 162°
2026-04-22 07:45 51.15177 -0.18699 204 ft 13 kts 193°
2026-04-22 07:45 51.15119 -0.18798 207 ft 13 kts 253°
2026-04-22 07:45 51.15100 -0.18935 214 ft 12 kts 259°
2026-04-22 07:46 51.15083 -0.19068 209 ft 12 kts 257°
2026-04-22 07:46 51.15064 -0.19197 204 ft 12 kts 258°
2026-04-22 07:46 51.15042 -0.19373 213 ft 19 kts 258°
2026-04-22 07:46 51.15014 -0.19570 214 ft 18 kts 257°
2026-04-22 07:47 51.14990 -0.19761 203 ft 17 kts 256°
2026-04-22 07:47 51.14965 -0.19945 204 ft 17 kts 258°
2026-04-22 07:47 51.14938 -0.20122 212 ft 16 kts 257°
2026-04-22 07:47 51.14906 -0.20350 204 ft 23 kts 258°
2026-04-22 07:48 51.14863 -0.20592 205 ft 23 kts 235°
2026-04-22 07:48 51.14732 -0.20704 210 ft 22 kts 187°
2026-04-22 07:48 51.14602 -0.20640 206 ft 16 kts 117°
2026-04-22 07:48 51.14598 -0.20555 214 ft 0 kts 77°
2026-04-22 07:49 51.14634 -0.20297 206 ft 65 kts 77°
2026-04-22 07:49 51.14794 -0.19163 206 ft 142 kts 77°
2026-04-22 07:49 51.15044 -0.17317 454 ft 190 kts 78°
2026-04-22 07:49 51.15216 -0.15891 911 ft 206 kts 79°
2026-04-22 07:50 51.15528 -0.13502 1542 ft 230 kts 78°
2026-04-22 07:50 51.15889 -0.10995 2189 ft 232 kts 79°
2026-04-22 07:50 51.16251 -0.08473 2814 ft 236 kts 79°
2026-04-22 07:50 51.16619 -0.05865 3446 ft 246 kts 79°
2026-04-22 07:51 51.16960 -0.03139 4099 ft 255 kts 86°
2026-04-22 07:51 51.16907 -0.00271 4771 ft 264 kts 96°
2026-04-22 07:51 51.16719 0.02687 5533 ft 273 kts 95°
2026-04-22 07:51 51.16631 0.05761 6212 ft 282 kts 91°
2026-04-22 07:52 51.16615 0.08924 6891 ft 290 kts 91°
2026-04-22 07:52 51.16588 0.12171 7533 ft 297 kts 92°
2026-04-22 07:52 51.16543 0.15500 8187 ft 304 kts 91°
2026-04-22 07:52 51.16536 0.18912 8850 ft 311 kts 90°
2026-04-22 07:53 51.16555 0.22391 9532 ft 317 kts 90°
2026-04-22 07:53 51.16572 0.25939 10220 ft 323 kts 90°
2026-04-22 07:53 51.16582 0.29547 10864 ft 328 kts 90°
2026-04-22 07:53 51.16588 0.33155 11476 ft 332 kts 90°
2026-04-22 07:54 51.16592 0.36866 12104 ft 337 kts 90°
2026-04-22 07:54 51.16596 0.40629 12746 ft 341 kts 90°
2026-04-22 07:54 51.16599 0.44415 13391 ft 344 kts 90°
2026-04-22 07:54 51.16600 0.48255 14060 ft 348 kts 90°
2026-04-22 07:55 51.16600 0.52122 14699 ft 350 kts 90°
2026-04-22 07:55 51.16599 0.56015 15305 ft 353 kts 89°
2026-04-22 07:55 51.16596 0.59945 15899 ft 355 kts 89°
2026-04-22 07:55 51.16592 0.63885 16503 ft 357 kts 89°
2026-04-22 07:56 51.16587 0.67847 17114 ft 358 kts 89°
2026-04-22 07:56 51.16582 0.71821 17737 ft 359 kts 89°
2026-04-22 07:56 51.16575 0.75798 18380 ft 360 kts 88°
2026-04-22 07:56 51.16565 0.79789 18991 ft 360 kts 88°
2026-04-22 07:57 51.16556 0.83787 19545 ft 361 kts 88°
2026-04-22 07:57 51.16543 0.87788 20122 ft 361 kts 87°
2026-04-22 07:57 51.16530 0.91737 20698 ft 360 kts 87°
2026-04-22 07:57 51.16516 0.95727 21287 ft 359 kts 87°
2026-04-22 07:58 51.16501 0.99690 21933 ft 357 kts 86°
2026-04-22 07:58 51.16485 1.03659 22577 ft 356 kts 86°
2026-04-22 07:58 51.16466 1.07586 23241 ft 353 kts 86°
2026-04-22 07:58 51.16447 1.11490 23904 ft 350 kts 86°
2026-04-22 07:59 51.16426 1.15352 24472 ft 346 kts 85°
2026-04-22 07:59 51.16404 1.19158 25046 ft 342 kts 85°
2026-04-22 07:59 51.16382 1.22920 25617 ft 337 kts 85°
2026-04-22 07:59 51.16360 1.26611 26201 ft 330 kts 84°
2026-04-22 08:00 51.16338 1.30281 26498 ft 336 kts 84°
2026-04-22 08:00 51.16318 1.34094 26484 ft 351 kts 85°
2026-04-22 08:00 51.16257 1.38043 26607 ft 363 kts 88°
2026-04-22 08:00 51.16094 1.42071 26708 ft 375 kts 89°
2026-04-22 08:01 51.15877 1.46324 26873 ft 385 kts 90°
2026-04-22 08:01 51.15647 1.50570 26958 ft 396 kts 90°
2026-04-22 08:01 51.15411 1.54994 27044 ft 406 kts 90°
2026-04-22 08:01 51.15175 1.59536 27145 ft 416 kts 90°
2026-04-22 08:02 51.14938 1.64185 27214 ft 426 kts 90°
2026-04-22 08:02 51.14698 1.68951 27305 ft 436 kts 90°
2026-04-22 08:02 51.14453 1.73815 27387 ft 445 kts 90°
2026-04-22 08:02 51.14201 1.78786 27460 ft 454 kts 90°
2026-04-22 08:03 51.13943 1.83839 27523 ft 462 kts 91°
2026-04-22 08:03 51.13677 1.88990 27585 ft 470 kts 91°
2026-04-22 08:03 51.13407 1.94198 27766 ft 475 kts 91°
2026-04-22 08:03 51.13131 1.99470 27842 ft 481 kts 91°
2026-04-22 08:04 51.12849 2.04805 27871 ft 487 kts 91°
2026-04-22 08:04 51.12566 2.10135 27928 ft 492 kts 91°
2026-04-22 08:04 51.12273 2.15594 27977 ft 496 kts 92°
2026-04-22 08:04 51.11977 2.21060 28062 ft 497 kts 92°
2026-04-22 08:05 51.11678 2.26520 28491 ft 492 kts 91°
2026-04-22 08:05 51.11379 2.31935 28813 ft 491 kts 91°
2026-04-22 08:05 51.11080 2.37331 29192 ft 488 kts 92°
2026-04-22 08:05 51.10784 2.42644 29386 ft 479 kts 93°
2026-04-22 08:06 51.10190 2.53219 29359 ft 481 kts 93°
2026-04-22 08:06 51.09572 2.63862 29339 ft 485 kts 94°
2026-04-22 08:07 51.08429 2.74472 29343 ft 488 kts 102°
2026-04-22 08:07 51.06382 2.84756 29378 ft 487 kts 108°
2026-04-22 08:08 51.04174 2.94846 29349 ft 478 kts 106°
2026-04-22 08:08 51.02209 3.04957 29331 ft 479 kts 104°
2026-04-22 08:09 51.00373 3.15071 29348 ft 480 kts 104°
2026-04-22 08:09 50.98512 3.25272 29323 ft 480 kts 104°
2026-04-22 08:10 50.96625 3.35419 29342 ft 479 kts 104°
2026-04-22 08:10 50.94724 3.45547 29316 ft 478 kts 104°
2026-04-22 08:11 50.92822 3.55651 29327 ft 478 kts 105°
2026-04-22 08:11 50.90912 3.65741 29326 ft 478 kts 105°
2026-04-22 08:12 50.88969 3.75818 29335 ft 478 kts 105°
2026-04-22 08:12 50.87029 3.85779 29334 ft 475 kts 105°
2026-04-22 08:13 50.85082 3.95755 29329 ft 475 kts 105°
2026-04-22 08:13 50.83124 4.05751 29349 ft 475 kts 105°
2026-04-22 08:14 50.81157 4.15738 29338 ft 476 kts 105°
2026-04-22 08:14 50.79180 4.25729 29344 ft 477 kts 105°
2026-04-22 08:15 50.77182 4.35771 29349 ft 480 kts 105°
2026-04-22 08:15 50.75168 4.45840 29343 ft 481 kts 105°
2026-04-22 08:16 50.73143 4.55924 29352 ft 482 kts 105°
2026-04-22 08:16 50.71143 4.65941 29344 ft 481 kts 105°
2026-04-22 08:17 50.69205 4.75983 29330 ft 477 kts 105°
2026-04-22 08:17 50.67264 4.85982 29329 ft 476 kts 105°
2026-04-22 08:18 50.65295 4.95938 29335 ft 475 kts 105°
2026-04-22 08:18 50.63261 5.05859 29284 ft 477 kts 106°
2026-04-22 08:19 50.62227 5.10862 28708 ft 483 kts 106°
2026-04-22 08:19 50.61199 5.15832 28286 ft 470 kts 106°
2026-04-22 08:19 50.60198 5.20663 27894 ft 458 kts 106°
2026-04-22 08:19 50.59221 5.25379 27473 ft 448 kts 106°
2026-04-22 08:20 50.58264 5.30000 27076 ft 439 kts 106°
2026-04-22 08:20 50.57339 5.34460 26688 ft 430 kts 106°
2026-04-22 08:20 50.56415 5.38907 26302 ft 428 kts 106°
2026-04-22 08:20 50.55489 5.43367 25855 ft 431 kts 106°
2026-04-22 08:21 50.54555 5.47849 25381 ft 429 kts 106°
2026-04-22 08:21 50.53628 5.52277 24916 ft 423 kts 106°
2026-04-22 08:21 50.52723 5.56657 24455 ft 417 kts 104°
2026-04-22 08:21 50.52068 5.61043 23993 ft 410 kts 95°
2026-04-22 08:22 50.52172 5.65412 23366 ft 403 kts 76°
2026-04-22 08:22 50.52988 5.69565 23015 ft 395 kts 70°
2026-04-22 08:22 50.53930 5.73613 22435 ft 393 kts 69°
2026-04-22 08:22 50.54887 5.77663 21865 ft 390 kts 70°
2026-04-22 08:23 50.55720 5.81646 21293 ft 387 kts 72°
2026-04-22 08:23 50.56526 5.85666 20735 ft 384 kts 72°
2026-04-22 08:23 50.57336 5.89653 20185 ft 381 kts 72°
2026-04-22 08:23 50.58145 5.93607 19635 ft 378 kts 72°
2026-04-22 08:24 50.58951 5.97530 19108 ft 376 kts 72°
2026-04-22 08:24 50.59755 6.01436 18569 ft 373 kts 72°
2026-04-22 08:24 50.60556 6.05321 17973 ft 371 kts 72°
2026-04-22 08:24 50.61349 6.09169 17379 ft 369 kts 72°
2026-04-22 08:25 50.62138 6.13005 16804 ft 367 kts 72°
2026-04-22 08:25 50.62922 6.16815 16243 ft 365 kts 72°
2026-04-22 08:25 50.63641 6.20631 15658 ft 363 kts 78°
2026-04-22 08:25 50.63664 6.24609 14980 ft 367 kts 100°
2026-04-22 08:26 50.63037 6.28463 14654 ft 360 kts 102°
2026-04-22 08:26 50.62685 6.32299 13956 ft 360 kts 90°
2026-04-22 08:26 50.62736 6.36200 13501 ft 355 kts 87°
2026-04-22 08:26 50.62848 6.40085 12878 ft 354 kts 84°
2026-04-22 08:27 50.63263 6.43892 12265 ft 350 kts 72°
2026-04-22 08:27 50.64482 6.47127 11641 ft 343 kts 46°
2026-04-22 08:27 50.66385 6.49295 11181 ft 334 kts 33°
2026-04-22 08:27 50.68394 6.51050 10642 ft 327 kts 31°
2026-04-22 08:28 50.70376 6.52728 10100 ft 320 kts 31°
2026-04-22 08:28 50.72313 6.54423 9490 ft 314 kts 32°
2026-04-22 08:28 50.74197 6.56116 8942 ft 309 kts 33°
2026-04-22 08:28 50.76049 6.57785 8369 ft 304 kts 33°
2026-04-22 08:29 50.77874 6.59431 7816 ft 300 kts 33°
2026-04-22 08:29 50.79664 6.61046 7458 ft 291 kts 33°
2026-04-22 08:29 50.81391 6.62597 7383 ft 280 kts 33°
2026-04-22 08:29 50.83053 6.64082 7342 ft 268 kts 33°
2026-04-22 08:30 50.84646 6.65501 7000 ft 269 kts 33°
2026-04-22 08:30 50.86308 6.66984 6614 ft 271 kts 33°
2026-04-22 08:30 50.87924 6.68435 6226 ft 269 kts 33°
2026-04-22 08:30 50.89540 6.69890 5756 ft 265 kts 33°
2026-04-22 08:31 50.91144 6.71341 5055 ft 265 kts 32°
2026-04-22 08:31 50.92733 6.72793 4352 ft 263 kts 33°
2026-04-22 08:31 50.95859 6.75685 3262 ft 251 kts 33°
2026-04-22 08:32 50.97318 6.77026 3134 ft 235 kts 33°
2026-04-22 08:32 50.98673 6.78304 2995 ft 217 kts 34°
2026-04-22 08:32 50.99919 6.79469 2966 ft 198 kts 33°
2026-04-22 08:32 51.01080 6.80525 2997 ft 191 kts 33°
2026-04-22 08:33 51.02242 6.81604 2983 ft 195 kts 38°
2026-04-22 08:33 51.02954 6.83257 3013 ft 180 kts 85°
2026-04-22 08:33 51.02754 6.85225 3016 ft 185 kts 106°
2026-04-22 08:33 51.02418 6.87214 2989 ft 187 kts 103°
2026-04-22 08:34 51.02103 6.89182 2990 ft 181 kts 103°
2026-04-22 08:34 51.01806 6.91110 2990 ft 178 kts 103°
2026-04-22 08:34 51.01493 6.92951 2988 ft 172 kts 110°
2026-04-22 08:34 51.00782 6.94456 3005 ft 176 kts 136°
2026-04-22 08:35 50.99856 6.95760 3025 ft 179 kts 134°
2026-04-22 08:35 50.98938 6.97122 2988 ft 179 kts 135°
2026-04-22 08:35 50.98023 6.98443 2918 ft 179 kts 136°
2026-04-22 08:35 50.97097 6.99778 2707 ft 180 kts 135°
2026-04-22 08:36 50.96179 7.01112 2469 ft 178 kts 135°
2026-04-22 08:36 50.95271 7.02429 2231 ft 175 kts 135°
2026-04-22 08:36 50.94385 7.03708 1993 ft 173 kts 134°
2026-04-22 08:36 50.93510 7.04977 1744 ft 162 kts 135°
2026-04-22 08:37 50.92733 7.06107 1518 ft 146 kts 135°
2026-04-22 08:37 50.92013 7.07152 1309 ft 139 kts 135°
2026-04-22 08:37 50.91307 7.08175 1138 ft 140 kts 136°
2026-04-22 08:37 50.90579 7.09230 944 ft 141 kts 134°
2026-04-22 08:38 50.90103 7.09921 818 ft 140 kts 134°
2026-04-22 08:38 50.89397 7.10946 632 ft 135 kts 134°
2026-04-22 08:38 50.88701 7.11946 422 ft 136 kts 135°
2026-04-22 08:38 50.88005 7.12970 298 ft 138 kts 137°
2026-04-22 08:39 50.87329 7.13948 250 ft 119 kts 138°
2026-04-22 08:39 50.86869 7.14625 254 ft 51 kts 136°
2026-04-22 08:39 50.86788 7.14740 256 ft 0 kts 140°
2026-04-22 08:39 50.86754 7.14766 256 ft 10 kts 182°
2026-04-22 08:40 50.86712 7.14680 257 ft 12 kts 242°
2026-04-22 08:40 50.86648 7.14477 257 ft 22 kts 243°
2026-04-22 08:40 50.86648 7.14262 256 ft 21 kts 311°
2026-04-22 08:40 50.86767 7.14133 250 ft 21 kts 334°
2026-04-22 08:41 50.86878 7.13992 243 ft 21 kts 317°
2026-04-22 08:41 50.86985 7.13836 242 ft 21 kts 317°
2026-04-22 08:41 50.87093 7.13675 240 ft 21 kts 319°
2026-04-22 08:41 50.87203 7.13519 237 ft 21 kts 319°
2026-04-22 08:42 50.87315 7.13379 234 ft 21 kts 324°
2026-04-22 08:42 50.87354 7.13210 232 ft 17 kts 224°
2026-04-22 08:42 50.87312 7.13144 232 ft 0 kts 229°